This is the latest recevied weather packets stored in our database for station/object VK4HIT-13. If no packets are shown the sender has not sent any weather packets the latest 1 day(s).
| Time | Temp. | Humidity | Pressure | Rain* | Wind** | Luminosity | Snow |
|---|---|---|---|---|---|---|---|
| 1778039369 | 25° C | 66% | 1015.6 hPa | 0 mm | 0.89 m/s, 20° | - | - |
| 1778039069 | 25° C | 66% | 1015.7 hPa | 0 mm | 0.89 m/s, 5° | - | - |
| 1778038769 | 25° C | 66% | 1015.8 hPa | 0 mm | 1.34 m/s, 9° | - | - |
| 1778038469 | 25° C | 66% | 1015.8 hPa | 0 mm | 0.89 m/s, 22° | - | - |
| 1778038169 | 25° C | 66% | 1015.9 hPa | 0 mm | 0.45 m/s, 23° | - | - |
| 1778037869 | 25° C | 66% | 1016 hPa | 0 mm | 0.89 m/s, 18° | - | - |
| 1778037569 | 25° C | 67% | 1016 hPa | 0 mm | 0.45 m/s, 19° | - | - |
| 1778037269 | 25° C | 67% | 1016 hPa | 0 mm | 0.45 m/s, 30° | - | - |
| 1778036969 | 24.44° C | 67% | 1016.1 hPa | 0 mm | 0.89 m/s, 24° | - | - |
| 1778036669 | 24.44° C | 66% | 1016.2 hPa | 0 mm | 0.89 m/s, 22° | - | - |
| 1778036369 | 25° C | 66% | 1016.2 hPa | 0 mm | 0.89 m/s, 24° | - | - |
| 1778036069 | 25° C | 67% | 1016.2 hPa | 0 mm | 0.89 m/s, 22° | - | - |
| 1778035769 | 25° C | 66% | 1016.1 hPa | 0 mm | 0.89 m/s, 62° | - | - |
| 1778035469 | 24.44° C | 68% | 1016.1 hPa | 0 mm | 0.45 m/s, 18° | - | - |
| 1778035169 | 24.44° C | 70% | 1016.3 hPa | 0 mm | 0.89 m/s, 20° | - | - |
| 1778034869 | 24.44° C | 70% | 1016.5 hPa | 0 mm | 1.34 m/s, 19° | - | - |
| 1778034569 | 24.44° C | 70% | 1016.5 hPa | 0 mm | 1.34 m/s, 24° | - | - |
| 1778034269 | 23.89° C | 71% | 1016.6 hPa | 0 mm | 0.89 m/s, 23° | - | - |
| 1778033969 | 23.89° C | 72% | 1016.6 hPa | 0 mm | 0.45 m/s, 30° | - | - |
| 1778033669 | 23.89° C | 71% | 1016.7 hPa | 0 mm | 0.89 m/s, 28° | - | - |
| 1778033369 | 23.33° C | 72% | 1016.9 hPa | 0 mm | 1.34 m/s, 29° | - | - |
| 1778033069 | 23.33° C | 72% | 1016.9 hPa | 0 mm | 1.34 m/s, 28° | - | - |
| 1778032769 | 23.33° C | 73% | 1017.1 hPa | 0 mm | 1.34 m/s, 28° | - | - |
| 1778032469 | 23.33° C | 73% | 1017.1 hPa | 0 mm | 1.34 m/s, 26° | - | - |
| 1778032169 | 23.33° C | 72% | 1017.3 hPa | 0 mm | 0.89 m/s, 29° | - | - |
* Rain latest hour (hover to see other rain measurements)
** Current wind speed in m/s (hover to see current wind gust speed)